Weather History for McCook, NE

Change the Weather History Date:

Tuesday, July 3, 2012

  Actual Average Record
Temperature  
Mean Temperature 87 °F 75 °F  
Max Temperature 103 °F 90 °F 109 °F (1969)
Min Temperature 71 °F 61 °F 49 °F (1992)
Cooling Degree Days 22    
Growing Degree Days 36 (Base 50)    
Moisture  
Dew Point 56 °F    
Average Humidity 37    
Maximum Humidity 63    
Minimum Humidity 17    
Precipitation  
Precipitation 0.00 in 0.10 in 1.30 in (1981)
Month to date precipitation 0.00 0.30  
Year to date precipitation 4.55 11.62  
Sea Level Pressure  
Sea Level Pressure 29.74 in    
Wind  
Wind Speed 9 mph (South)    
Max Wind Speed 15 mph    
Max Gust Speed 24 mph    
Visibility 10 miles    
Events      
T = Trace of Precipitation, MM = Missing Value Source: NWS Daily Summary

Daily Weather History Graph

Daily Weather History Graph

Search for Another Location

Airport:

Trip Planner

Search our weather history database for the weather conditions in past years. The results will help you decide how hot, cold, wet, or windy it might be!

Date:

Astronomy

Jul. 03, 2012 Rise Set
Actual Time 6:17 AM CDT 9:15 PM CDT
Civil Twilight 5:45 AM CDT 9:48 PM CDT
Nautical Twilight 5:03 AM CDT 10:29 PM CDT
Astronomical Twilight 4:15 AM CDT 11:17 PM CDT
Moon 9:11 PM CDT (7/3) 6:13 AM CDT (7/3)
Length of Visible Light 16h 02m
Length of Day
14h 57m
Full, 100% of the Moon is Illuminated
Jul 3
Full
Jul 3
Full
Jul 10
Last Quarter
Jul 18
New
Jul 26
First Quarter

Hourly Weather History & Observations

Time (CDT) Temp. Heat Index Dew Point Humidity Pressure Visibility Wind Dir Wind Speed Gust Speed Precip Events Conditions
12:53 AM 80.1 °F 80.4 °F 57.0 °F 45% 29.80 in 10.0 mi SSW 8.1 mph - N/A   Clear
1:53 AM 75.9 °F - 57.0 °F 52% 29.81 in 10.0 mi Calm Calm - N/A   Clear
2:53 AM 73.0 °F - 57.9 °F 59% 29.79 in 10.0 mi NNE 3.5 mph - N/A   Clear
3:53 AM 75.0 °F - 57.9 °F 55% 29.78 in 10.0 mi SSE 4.6 mph - N/A   Clear
4:53 AM 71.1 °F - 57.9 °F 63% 29.77 in 10.0 mi SSW 5.8 mph - N/A   Clear
5:53 AM 73.0 °F - 57.9 °F 59% 29.76 in 10.0 mi SSW 8.1 mph - N/A   Clear
6:53 AM 73.9 °F - 57.9 °F 57% 29.76 in 10.0 mi South 12.7 mph - N/A   Clear
7:53 AM 78.1 °F - 57.9 °F 50% 29.76 in 10.0 mi South 10.4 mph - N/A   Clear
8:53 AM 82.0 °F 82.4 °F 60.1 °F 47% 29.78 in 10.0 mi SW 10.4 mph - N/A   Clear
9:53 AM 87.1 °F 86.7 °F 60.1 °F 40% 29.79 in 10.0 mi SW 11.5 mph - N/A   Clear
10:53 AM 91.0 °F 90.5 °F 60.1 °F 35% 29.78 in 10.0 mi SW 12.7 mph - N/A   Clear
11:53 AM 97.0 °F 95.3 °F 55.9 °F 25% 29.77 in 10.0 mi South 10.4 mph 24.2 mph N/A   Clear
12:53 PM 99.0 °F - 51.1 °F 20% 29.76 in 10.0 mi South 13.8 mph 24.2 mph N/A   Clear
1:53 PM 100.9 °F 98.7 °F 53.1 °F 20% 29.75 in 10.0 mi South 15.0 mph 24.2 mph N/A   Clear
2:53 PM 100.9 °F - 48.9 °F 17% 29.74 in 10.0 mi SSE 12.7 mph 23.0 mph N/A   Clear
3:53 PM 102.0 °F - 51.1 °F 18% 29.72 in 10.0 mi South 15.0 mph 21.9 mph N/A   Clear
4:53 PM 100.9 °F - 52.0 °F 19% 29.70 in 10.0 mi SSE 12.7 mph 19.6 mph N/A   Clear
5:53 PM 100.9 °F - 51.1 °F 19% 29.68 in 10.0 mi SE 13.8 mph 19.6 mph N/A   Clear
6:53 PM 100.0 °F 97.9 °F 54.0 °F 21% 29.67 in 10.0 mi South 12.7 mph - N/A   Clear
7:53 PM 97.0 °F 95.0 °F 55.0 °F 24% 29.67 in 10.0 mi SSE 12.7 mph - N/A   Clear
8:53 PM 93.0 °F 91.4 °F 55.9 °F 29% 29.68 in 10.0 mi SSE 12.7 mph - N/A   Clear
9:53 PM 89.1 °F 87.3 °F 55.9 °F 32% 29.70 in 10.0 mi SSE 10.4 mph - N/A   Clear
10:53 PM 86.0 °F 84.5 °F 55.0 °F 35% 29.71 in 10.0 mi South 8.1 mph - N/A   Clear
11:53 PM 86.0 °F 84.5 °F 55.0 °F 35% 29.70 in 10.0 mi South 13.8 mph - N/A   Clear